Indianapolis, IN

4:41 PM EST on December 13, 2017 (GMT -0500)
Indianapolis International

Weather History for KIND - May, 2013

Change the Weather History Date:

Tuesday, May 21, 2013

  Actual Average Record
Temperature  
Mean Temperature 72 °F 64 °F  
Max Temperature 82 °F 74 °F 92 °F (1941)
Min Temperature 62 °F 54 °F 36 °F (2002)
Degree Days  
Heating Degree Days 0 4  
Month to date heating degree days 69 115  
Since 1 July heating degree days 5362 5337  
Cooling Degree Days 7 3  
Month to date cooling degree days 73 34  
Year to date cooling degree days 82 49  
Growing Degree Days 22 (Base 50)    
Moisture  
Dew Point 62 °F    
Average Humidity 76    
Maximum Humidity 100    
Minimum Humidity 51    
Precipitation  
Precipitation 0.30 in 0.18 in 2.69 in (1880)
Month to date precipitation 2.57 3.46  
Year to date precipitation 20.90 15.81  
Snow  
Snow 0.00 in 0.00 in 0.00 in ()
Month to date snowfall 0.0 0.0  
Since 1 July snowfall 34.5 25.9  
Snow Depth 0.00 in    
Sea Level Pressure  
Sea Level Pressure 29.82 in    
Wind  
Wind Speed 13 mph (SSW)    
Max Wind Speed 41 mph    
Max Gust Speed 55 mph    
Visibility 9 miles    
Events Rain , Thunderstorm    
T = Trace of Precipitation, MM = Missing Value Source: NWS Daily Summary

Daily Weather History Graph

Daily Weather History Graph

Search for Another Location

Airport or City:

Trip Planner

Search our weather history database for the weather conditions in past years. The results will help you decide how hot, cold, wet, or windy it might be!

Date:

Astronomy

May. 21, 2013 Rise Set
Actual Time 6:25 AM EDT 8:58 PM EDT
Civil Twilight 5:54 AM EDT 9:29 PM EDT
Nautical Twilight 5:15 AM EDT 10:08 PM EDT
Astronomical Twilight 4:32 AM EDT 10:51 PM EDT
Moon 5:12 PM EDT (5/21) 3:52 AM EDT (5/21)
Length of Visible Light 15h 35m
Length of Day
14h 33m
Waxing Gibbous, 84% of the Moon is Illuminated
May 21
Waxing Gibbous
May 25
Full
May 31
Last Quarter
Jun 8
New
Jun 16
First Quarter

Hourly Weather History & Observations

Time (EDT) Temp. Heat Index Dew Point Humidity Pressure Visibility Wind Dir Wind Speed Gust Speed Precip Events Conditions
12:54 AM 75.0 °F - 66.0 °F 73% 29.84 in 10.0 mi South 13.8 mph 21.9 mph N/A   Mostly Cloudy
1:54 AM 75.0 °F - 66.0 °F 73% 29.82 in 10.0 mi South 16.1 mph 24.2 mph N/A   Overcast
2:54 AM 75.0 °F - 66.0 °F 73% 29.79 in 10.0 mi South 16.1 mph 25.3 mph N/A   Overcast
3:11 AM 75.2 °F - 66.2 °F 73% 29.84 in 2.0 mi SSW 23.0 mph 39.1 mph 0.00 in Rain , Thunderstorm Thunderstorms and Rain
3:14 AM 71.6 °F - 64.4 °F 78% 29.87 in 4.0 mi WSW 41.4 mph 55.2 mph 0.00 in Rain , Thunderstorm Thunderstorms and Rain
3:18 AM 66.2 °F - 62.6 °F 88% 29.88 in 6.0 mi WNW 36.8 mph 55.2 mph 0.02 in Rain , Thunderstorm Thunderstorms and Rain
3:43 AM 64.4 °F - 60.8 °F 88% 29.88 in 10.0 mi West 15.0 mph - 0.07 in Rain Light Rain
3:54 AM 64.0 °F - 60.1 °F 87% 29.85 in 10.0 mi West 11.5 mph - 0.07 in Rain Light Rain
4:54 AM 64.0 °F - 61.0 °F 90% 29.83 in 10.0 mi South 8.1 mph - 0.00 in   Overcast
5:54 AM 62.1 °F - 60.1 °F 93% 29.82 in 10.0 mi SSE 10.4 mph - N/A   Mostly Cloudy
6:54 AM 63.0 °F - 61.0 °F 93% 29.85 in 10.0 mi SSW 10.4 mph - N/A   Overcast
7:15 AM 62.6 °F - 60.8 °F 94% 29.89 in 10.0 mi SSW 12.7 mph - N/A Thunderstorm Thunderstorm
7:22 AM 62.6 °F - 60.8 °F 94% 29.87 in 2.0 mi SW 16.1 mph 23.0 mph 0.00 in Rain , Thunderstorm Heavy Thunderstorms and Rain
7:32 AM 62.6 °F - 60.8 °F 94% 29.87 in 6.0 mi SSW 10.4 mph - 0.10 in Rain , Thunderstorm Light Thunderstorms and Rain
7:46 AM 62.6 °F - 60.8 °F 94% 29.90 in 10.0 mi SSW 12.7 mph - 0.11 in Rain Light Rain
7:54 AM 63.0 °F - 61.0 °F 93% 29.88 in 10.0 mi SSW 15.0 mph 23.0 mph 0.11 in Rain Light Rain
8:54 AM 63.0 °F - 62.1 °F 97% 29.83 in 10.0 mi SE 8.1 mph - 0.04 in Rain Light Rain
9:54 AM 66.9 °F - 64.0 °F 90% 29.84 in 10.0 mi South 10.4 mph - 0.00 in   Mostly Cloudy
10:54 AM 71.1 °F - 64.0 °F 78% 29.84 in 10.0 mi South 13.8 mph - N/A   Scattered Clouds
11:54 AM 75.0 °F - 64.0 °F 69% 29.81 in 10.0 mi SSW 13.8 mph 23.0 mph N/A   Mostly Cloudy
12:54 PM 78.1 °F - 64.0 °F 62% 29.80 in 10.0 mi SSW 15.0 mph - N/A   Mostly Cloudy
1:54 PM 79.0 °F - 62.1 °F 56% 29.79 in 10.0 mi SW 17.3 mph 23.0 mph N/A   Mostly Cloudy
2:54 PM 80.1 °F 81.5 °F 63.0 °F 56% 29.79 in 10.0 mi SSW 13.8 mph - N/A   Mostly Cloudy
3:54 PM 82.0 °F 83.1 °F 63.0 °F 52% 29.80 in 10.0 mi SW 23.0 mph 26.5 mph N/A   Mostly Cloudy
4:54 PM 81.0 °F 81.7 °F 61.0 °F 50% 29.77 in 10.0 mi SSW 23.0 mph 32.2 mph N/A   Mostly Cloudy
5:54 PM 80.1 °F 80.9 °F 60.1 °F 50% 29.77 in 10.0 mi SSW 19.6 mph 24.2 mph N/A   Mostly Cloudy
6:54 PM 78.1 °F - 63.0 °F 60% 29.75 in 10.0 mi South 15.0 mph - N/A   Mostly Cloudy
7:54 PM 75.9 °F - 63.0 °F 64% 29.75 in 10.0 mi South 10.4 mph - N/A   Mostly Cloudy
8:54 PM 75.0 °F - 61.0 °F 62% 29.76 in 10.0 mi SSW 13.8 mph - N/A   Mostly Cloudy
9:54 PM 72.0 °F - 62.1 °F 71% 29.77 in 10.0 mi South 8.1 mph - N/A   Mostly Cloudy
10:54 PM 70.0 °F - 61.0 °F 73% 29.78 in 10.0 mi SSW 8.1 mph - N/A   Mostly Cloudy
11:54 PM 71.1 °F - 62.1 °F 73% 29.78 in 10.0 mi South 9.2 mph - N/A   Overcast